W2KFV-2 Carle Place NY US current weather conditions

sailwx.info

Wind from 231 at 0 knots gusting 6

Air temperature 20.6° C
Dewpoint 11.7° C

Last reported at 2020-Jun-02 23:00 UTC.
Time now 2020-Jun-03 00:07 UTC

Location: N 40°45' W 073°37'.
View on Google Maps.

See reports from other nearby stations

  
Tides and Currents Weather Stations Pressure Air Temp Water Temp Dewpoint Dewpoint Depression Visibility Wind Speed Wind Dir Waves Ship Positions
date/time (UTC)wind fromknots sea level pressurealtimeterstation pressurevisibilityair tempwater tempwave heightnotes
2020-Jun-02 23:00 231 0 gusting 6 20.6
2020-Jun-02 22:50 173 1 gusting 7 20.6
2020-Jun-02 22:40 199 2 gusting 6 21.1
2020-Jun-02 22:30 206 1 gusting 6 21.1
2020-Jun-02 22:20 179 2 gusting 11 21.1
2020-Jun-02 22:10 190 4 gusting 11 21.1
2020-Jun-02 22:00 184 3 gusting 11 21.7
2020-Jun-02 21:50 176 1 gusting 10 21.7
2020-Jun-02 21:40 211 4 gusting 10 22.2
2020-Jun-02 21:30 192 4 gusting 8 22.8
2020-Jun-02 21:20 198 2 gusting 8 22.8
2020-Jun-02 21:10 179 4 gusting 10 23.3
2020-Jun-02 21:00 187 3 gusting 10 23.9
2020-Jun-02 20:50 245 2 gusting 7 23.9
2020-Jun-02 20:40 214 3 gusting 10 23.9
2020-Jun-02 20:30 193 2 gusting 13 23.3
2020-Jun-02 20:20 198 4 gusting 7 23.9
2020-Jun-02 20:10 205 2 gusting 8 23.9
2020-Jun-02 20:00 262 4 gusting 10 23.3
2020-Jun-02 19:50 269 6 gusting 13 23.9
2020-Jun-02 19:40 284 3 gusting 13 23.3
2020-Jun-02 19:30 273 5 gusting 11 23.3
2020-Jun-02 19:20 290 7 gusting 13 23.3
2020-Jun-02 19:10 232 2 gusting 10 23.3
2020-Jun-02 19:00 288 4 gusting 15 23.3
2020-Jun-02 18:50 194 2 gusting 7 23.3
2020-Jun-02 18:40 198 2 gusting 6 23.3
2020-Jun-02 18:30 276 4 gusting 7 22.8
2020-Jun-02 18:20 276 5 gusting 12 22.2
2020-Jun-02 18:10 292 4 gusting 8 22.2
2020-Jun-02 18:00 286 2 gusting 6 21.7
2020-Jun-02 17:50 261 2 gusting 10 21.7
2020-Jun-02 17:40 274 3 gusting 10 22.2
2020-Jun-02 17:30 221 1 gusting 8 22.2
2020-Jun-02 17:20 255 2 gusting 8 21.7
2020-Jun-02 17:10 217 1 gusting 6 21.7
2020-Jun-02 17:00 290 2 gusting 6 22.2
2020-Jun-02 16:50 279 5 gusting 8 21.7
2020-Jun-02 16:40 249 3 gusting 7 21.7
2020-Jun-02 16:30 277 0 gusting 8 21.7
2020-Jun-02 16:20 292 5 gusting 11 21.7
2020-Jun-02 16:10 266 4 gusting 10 22.2
2020-Jun-02 16:00 263 0 gusting 7 22.8
2020-Jun-02 15:50 278 4 gusting 8 22.2
2020-Jun-02 15:40 266 1 gusting 6 22.8
2020-Jun-02 15:30 267 2 gusting 6 22.8
2020-Jun-02 15:20 261 1 gusting 6 22.2
2020-Jun-02 15:10 255 1 gusting 6 22.2
2020-Jun-02 15:00 232 0 gusting 6 21.7
2020-Jun-02 14:50 269 0 gusting 8 21.1
2020-Jun-02 14:40 258 2 gusting 6 21.1
2020-Jun-02 14:30 270 1 gusting 4 21.7
2020-Jun-02 14:20 296 0 gusting 5 20.6
2020-Jun-02 14:10 271 0 gusting 6 20.0
2020-Jun-02 14:00 285 1 gusting 4 20.0
2020-Jun-02 13:50 291 2 gusting 6 19.4
2020-Jun-02 13:40 276 1 gusting 2 19.4
2020-Jun-02 13:30 285 18.9
2020-Jun-02 13:20 285 0 gusting 1 18.9
2020-Jun-02 13:10 305 18.9
2020-Jun-02 13:00 305 18.3
2020-Jun-02 12:50 333 18.3
2020-Jun-02 12:40 288 0 gusting 1 18.3
2020-Jun-02 12:30 224 17.8
2020-Jun-02 12:20 224 17.2
2020-Jun-02 12:10 222 16.7
2020-Jun-02 12:00 210 16.1
2020-Jun-02 11:50 212 16.1
2020-Jun-02 11:40 194 16.1
2020-Jun-02 11:30 214 15.6
2020-Jun-02 11:20 005 15.0
2020-Jun-02 11:10 005 14.4
2020-Jun-02 11:00 005 13.9
2020-Jun-02 10:50 005 12.8
2020-Jun-02 10:40 005 12.2
2020-Jun-02 10:30 005 11.7
2020-Jun-02 10:20 005 11.1
2020-Jun-02 10:10 005 10.6
2020-Jun-02 10:00 005 10.0
2020-Jun-02 09:50 005 10.0
2020-Jun-02 09:40 005 9.4
2020-Jun-02 09:30 005 9.4
2020-Jun-02 09:20 005 9.4
2020-Jun-02 09:10 004 9.4
2020-Jun-02 09:00 004 9.4
2020-Jun-02 08:50 004 9.4
2020-Jun-02 08:40 004 9.4
2020-Jun-02 08:30 004 9.4
2020-Jun-02 08:20 004 9.4
2020-Jun-02 08:10 004 9.4
2020-Jun-02 08:00 004 10.0
2020-Jun-02 07:50 004 10.0
2020-Jun-02 07:40 004 10.0
2020-Jun-02 07:30 004 10.0
2020-Jun-02 07:20 004 10.0
2020-Jun-02 07:10 004 10.0
2020-Jun-02 07:00 004 10.0
2020-Jun-02 06:50 004 10.6
2020-Jun-02 06:40 004 10.6
2020-Jun-02 06:30 004 10.6
2020-Jun-02 06:20 004 10.6
2020-Jun-02 06:10 004 10.6
2020-Jun-02 06:00 004 10.6
2020-Jun-02 05:50 004 11.1
2020-Jun-02 05:40 004 11.1
2020-Jun-02 05:30 004 11.1
2020-Jun-02 05:20 004 11.1
2020-Jun-02 05:10 004 11.7
2020-Jun-02 05:00 004 11.7
2020-Jun-02 04:50 004 12.2
2020-Jun-02 04:40 004 12.2
2020-Jun-02 04:30 004 12.2
2020-Jun-02 04:20 004 12.8
2020-Jun-02 04:10 004 12.8
2020-Jun-02 04:00 004 12.8
2020-Jun-02 03:50 004 12.8
2020-Jun-02 03:40 004 13.3
2020-Jun-02 03:30 004 13.3
2020-Jun-02 03:20 004 13.3
2020-Jun-02 03:10 004 13.9
2020-Jun-02 03:00 004 13.9
2020-Jun-02 02:50 004 13.9
2020-Jun-02 02:40 004 13.9
2020-Jun-02 02:30 004 13.9
2020-Jun-02 02:20 004 13.9
2020-Jun-02 02:10 004 13.9
2020-Jun-02 02:00 004 13.9
2020-Jun-02 01:50 004 13.9
2020-Jun-02 01:40 004 14.4
2020-Jun-02 01:30 004 15.0
2020-Jun-02 01:20 004 15.6
2020-Jun-02 01:10 004 16.1
2020-Jun-02 01:00 004 16.1
2020-Jun-02 00:50 004 16.7
2020-Jun-02 00:40 004 17.2
2020-Jun-02 00:30 004 17.8
2020-Jun-02 00:20 063 18.3
2020-Jun-02 00:10 060 18.3
2020-Jun-02 00:00 063 18.3
2020-Jun-01 23:50 352 1 gusting 5 19.4
2020-Jun-01 23:40 025 0 gusting 4 19.4
2020-Jun-01 23:30 021 1 gusting 7 19.4
2020-Jun-01 23:20 056 0 gusting 2 18.3
2020-Jun-01 23:10 212 18.3
2020-Jun-01 23:00 218 18.3
2020-Jun-01 22:50 231 0 gusting 6 18.3
2020-Jun-01 22:40 177 0 gusting 5 18.9
2020-Jun-01 22:30 210 20.0
2020-Jun-01 22:20 183 2 gusting 6 19.4
2020-Jun-01 22:10 210 3 gusting 7 20.0
2020-Jun-01 22:00 167 2 gusting 4 20.0
2020-Jun-01 21:50 215 0 gusting 5 20.0
2020-Jun-01 21:40 248 0 gusting 8 20.6
2020-Jun-01 21:30 013 1 gusting 6 21.1
2020-Jun-01 21:20 021 2 gusting 7 21.1
2020-Jun-01 21:10 272 1 gusting 6 20.6
2020-Jun-01 21:00 301 2 gusting 6 21.1
2020-Jun-01 20:50 303 4 gusting 13 21.1
2020-Jun-01 20:40 293 4 gusting 6 21.7
2020-Jun-01 20:30 291 4 gusting 10 21.1
2020-Jun-01 20:20 282 0 gusting 6 21.1
2020-Jun-01 20:10 018 1 gusting 6 21.1
2020-Jun-01 20:00 292 4 gusting 10 20.0
2020-Jun-01 19:50 256 1 gusting 10 20.0
2020-Jun-01 19:40 279 5 gusting 12 20.0
2020-Jun-01 19:30 304 2 gusting 10 20.6
2020-Jun-01 19:20 303 0 gusting 6 20.0
2020-Jun-01 19:10 297 1 gusting 4 20.0
2020-Jun-01 19:00 008 1 gusting 6 18.9
2020-Jun-01 18:50 247 1 gusting 7 18.9
2020-Jun-01 18:40 025 1 gusting 10 19.4
2020-Jun-01 18:30 248 4 gusting 13 19.4
2020-Jun-01 18:20 335 0 gusting 6 19.4
2020-Jun-01 18:10 18.9
2020-Jun-01 18:00 296 2 gusting 10 17.8
2020-Jun-01 17:50 282 5 gusting 13 17.8
2020-Jun-01 17:40 300 2 gusting 7 18.9
2020-Jun-01 17:30 342 4 gusting 8 17.8
2020-Jun-01 17:20 301 3 gusting 11 18.3
2020-Jun-01 17:10 032 1 gusting 12 18.3
2020-Jun-01 17:00 287 6 gusting 11 17.8
2020-Jun-01 16:50 299 2 gusting 7 17.2
2020-Jun-01 16:40 037 1 gusting 6 17.8
2020-Jun-01 16:30 279 5 gusting 10 17.2
2020-Jun-01 16:20 276 2 gusting 10 17.2
2020-Jun-01 16:10 294 6 gusting 13 16.7
2020-Jun-01 16:00 282 4 gusting 8 17.2
2020-Jun-01 15:50 270 1 gusting 6 17.2
2020-Jun-01 15:40 311 2 gusting 8 16.7
2020-Jun-01 15:30 287 1 gusting 8 16.7
2020-Jun-01 15:20 331 1 gusting 11 16.1
2020-Jun-01 15:10 292 4 gusting 10 16.1
2020-Jun-01 15:00 008 0 gusting 6 17.2
2020-Jun-01 14:50 310 0 gusting 8 16.7
2020-Jun-01 14:40 311 1 gusting 6 16.7
2020-Jun-01 14:30 290 0 gusting 6 16.7
2020-Jun-01 13:40 338 0 gusting 2 15.6
2020-Jun-01 13:30 026 1 gusting 4 15.0
2020-Jun-01 13:20 293 1 gusting 6 15.0
2020-Jun-01 13:10 287 1 gusting 7 15.0
2020-Jun-01 13:00 063 0 gusting 4 15.0
2020-Jun-01 12:50 281 0 gusting 5 15.0
2020-Jun-01 12:40 002 13.9
2020-Jun-01 12:30 267 1 gusting 5 13.9
2020-Jun-01 12:20 293 1 gusting 5 13.3
2020-Jun-01 12:10 281 2 gusting 6 13.3
2020-Jun-01 12:00 306 0 gusting 6 13.3
2020-Jun-01 11:50 284 2 gusting 7 12.8
2020-Jun-01 11:40 288 2 gusting 7 12.8
2020-Jun-01 11:30 306 1 gusting 5 12.2
2020-Jun-01 11:20 290 0 gusting 2 12.2
2020-Jun-01 11:10 336 0 gusting 2 12.2
2020-Jun-01 11:00 299 11.7
2020-Jun-01 10:50 272 0 gusting 2 11.1
2020-Jun-01 10:40 025 10.6
2020-Jun-01 10:30 012 10.0
2020-Jun-01 10:20 8.9
2020-Jun-01 10:10 7.8
2020-Jun-01 10:00 6.7
2020-Jun-01 09:50 6.7
2020-Jun-01 09:40 6.7
2020-Jun-01 09:30 6.7
2020-Jun-01 09:20 6.7
2020-Jun-01 09:10 6.7
2020-Jun-01 09:00 6.7
2020-Jun-01 08:50 6.7
2020-Jun-01 08:40 7.2
2020-Jun-01 08:30 7.2
2020-Jun-01 08:20 7.8
2020-Jun-01 08:10 7.8
2020-Jun-01 08:00 7.8
2020-Jun-01 07:50 7.8
2020-Jun-01 07:40 8.3
2020-Jun-01 07:30 8.3
2020-Jun-01 07:20 8.3
2020-Jun-01 07:10 8.9
2020-Jun-01 07:00 8.9
2020-Jun-01 06:50 9.4
2020-Jun-01 06:40 10.0
2020-Jun-01 06:30 10.0
2020-Jun-01 06:20 10.0
2020-Jun-01 06:10 020 10.0
2020-Jun-01 06:00 020 10.0
2020-Jun-01 05:50 041 10.6
2020-Jun-01 05:40 039 10.6
2020-Jun-01 05:30 335 11.1
2020-Jun-01 05:20 037 11.1
2020-Jun-01 05:10 037 11.1
2020-Jun-01 05:00 056 11.7
2020-Jun-01 04:50 029 11.7
2020-Jun-01 04:40 034 11.7
2020-Jun-01 04:30 012 12.2
2020-Jun-01 04:20 328 12.2
2020-Jun-01 04:10 044 12.8
2020-Jun-01 04:00 020 12.8
2020-Jun-01 03:50 355 0 gusting 2 12.8
2020-Jun-01 03:40 022 13.3
2020-Jun-01 03:30 050 0 gusting 6 13.3
2020-Jun-01 03:20 046 13.9
2020-Jun-01 03:10 007 0 gusting 2 13.9
2020-Jun-01 03:00 017 1 gusting 4 14.4
2020-Jun-01 02:50 048 2 gusting 6 14.4
2020-Jun-01 02:40 018 15.0
2020-Jun-01 02:30 025 1 gusting 6 15.0
2020-Jun-01 02:20 026 2 gusting 7 15.6
2020-Jun-01 02:10 325 0 gusting 5 15.6
2020-Jun-01 02:00 313 0 gusting 5 15.6
2020-Jun-01 01:50 339 15.6
2020-Jun-01 01:40 296 0 gusting 5 15.6
2020-Jun-01 01:30 305 0 gusting 2 15.6
2020-Jun-01 01:20 325 0 gusting 5 16.1
2020-Jun-01 01:10 300 15.6
2020-Jun-01 01:00 008 0 gusting 2 16.1
2020-Jun-01 00:50 034 16.1
2020-Jun-01 00:40 025 16.1
2020-Jun-01 00:30 008 16.7
2020-Jun-01 00:20 005 16.7
2020-Jun-01 00:10 356 0 gusting 5 17.2
2020-Jun-01 00:00 355 1 gusting 6 17.2